CW2674 Weather Reports


Display with metric or nautical units.
time (UTC)temp
F
wind
direction
speed
MPH
gust
MPH
rain 1hr
in
rain 24hr
in
rain mn
in
humidity
%
barometer
mb
20260505204404 81 227 10.0 18.0 0.00 0.00 0.00 26 1010.3
20260505201404 81 245 8.0 16.0 0.00 0.00 0.00 25 1010.3
20260505193405 82 231 7.0 17.0 0.00 0.00 0.00 26 1010.7
20260505191406 81 199 4.0 15.0 0.00 0.00 0.00 28 1010.8
20260505190405 80 254 8.0 14.0 0.00 0.00 0.00 28 1010.9
20260505184404 79 191 6.0 16.0 0.00 0.00 0.00 30 1011.1
20260505183404 79 230 6.0 18.0 0.00 0.00 0.00 30 1011.3
20260505181403 79 230 7.0 15.0 0.00 0.00 0.00 32 1011.4
20260505180404 79 196 7.0 16.0 0.00 0.00 0.00 33 1011.4
20260505174404 78 248 5.0 15.0 0.00 0.00 0.00 32 1011.3
20260505173404 77 264 5.0 13.0 0.00 0.00 0.00 33 1011.3
20260505171403 76 204 4.0 10.0 0.00 0.00 0.00 34 1011.3
20260505170404 75 245 8.0 13.0 0.00 0.00 0.00 33 1011.3
20260505164404 74 206 5.0 12.0 0.00 0.00 0.00 34 1011.2
20260505163406 74 195 6.0 13.0 0.00 0.00 0.00 34 1011.2
20260505161404 72 244 6.0 12.0 0.00 0.00 0.00 37 1011.3
20260505160404 71 237 5.0 12.0 0.00 0.00 0.00 37 1011.3
20260505151404 70 236 4.0 12.0 0.00 0.00 0.00 44 1011.4
20260505150405 69 266 7.0 12.0 0.00 0.00 0.00 44 1011.4
20260505140404 66 206 4.0 12.0 0.00 0.00 0.00 55 1011.0
20260505124405 65 242 2.0 6.0 0.00 0.00 0.00 56 1010.3
20260505123404 65 245 2.0 8.0 0.00 0.00 0.00 56 1010.1
20260505121404 66 194 3.0 8.0 0.00 0.00 0.00 54 1010.1
20260505114404 66 243 4.0 8.0 0.00 0.00 0.00 52 1009.8
20260505111406 67 240 6.0 10.0 0.00 0.00 0.00 51 1009.6
20260505071405 71 226 3.0 7.0 0.00 0.00 0.00 40 1011.0
20260505070404 71 223 4.0 6.0 0.00 0.00 0.00 40 1011.0
20260505063405 72 235 2.0 6.0 0.00 0.00 0.00 40 1011.1
20260505061404 72 234 1.0 5.0 0.00 0.00 0.00 42 1010.9
20260505054406 72 234 2.0 3.0 0.00 0.00 0.00 43 1010.8
20260505053404 72 234 1.0 3.0 0.00 0.00 0.00 43 1010.7
20260505051404 73 234 1.0 3.0 0.00 0.00 0.00 42 1011.0
20260505050403 73 234 2.0 5.0 0.00 0.00 0.00 41 1011.0
20260505041405 74 235 3.0 7.0 0.00 0.00 0.00 38 1011.1
20260505040405 74 235 3.0 7.0 0.00 0.00 0.00 38 1011.3
20260505034405 74 236 4.0 7.0 0.00 0.00 0.00 37 1011.0
20260505033404 74 236 3.0 7.0 0.00 0.00 0.00 37 1010.6
20260505031404 74 236 3.0 6.0 0.00 0.00 0.00 36 1010.3
20260505030404 74 240 3.0 8.0 0.00 0.00 0.00 35 1010.2
20260505024404 75 243 2.0 7.0 0.00 0.00 0.00 35 1010.1
20260505023404 75 235 5.0 9.0 0.00 0.00 0.00 35 1010.2
20260505021404 75 234 3.0 6.0 0.00 0.00 0.00 36 1010.1
20260504224404 79 217 6.0 10.0 0.00 0.00 0.00 34 1010.7
20260504223403 79 265 6.0 15.0 0.00 0.00 0.00 35 1010.7
20260504221403 79 244 5.0 12.0 0.00 0.00 0.00 36 1011.0
20260504220404 79 241 9.0 14.0 0.00 0.00 0.00 35 1011.2
20260504214404 79 238 3.0 12.0 0.00 0.00 0.00 38 1011.5
20260504213405 78 238 2.0 14.0 0.00 0.00 0.00 39 1011.7
20260504211405 77 222 5.0 10.0 0.00 0.00 0.00 40 1012.1
20260504210404 77 235 5.0 14.0 0.00 0.00 0.00 40 1012.1